Showing default

STRIX-10, 100746

Orbit data source: Space-Track

STRIX-10, 100746 is a payload satellite owned by Synspective (JP) in LEO that was launched on Sat, 19 Sep 2026 UTC launched from the Rocket Lab Launch Complex (RLLC). Payload-class satellites include a variety of spacecraft equipped with specific instruments for various scientific and technological missions. These include communications satellites like Starlink; space stations such as the ISS; scientific satellites like the Hubble; Earth observation satellites from companies like Planet Labs, Umbra, and HawkEye 360; GPS; miniature CubeSats for education and research; and military/defense satellites.

Loading next visibility...
Identifier
100746, 2026-217A
Orbit
LEO
Country
Flag of JPJP / JPN
Related business
Manufacturer
Synspective
Mission
Operational spacecraft
Bus & Motor
STRIX, Unknown motor
Mass
150 kg wet, 150 kg dry
Launch date (UTC)
2026-09-19 (2 days ago)
Launch vehicle
Unknown
Launch site
Rocket Lab Launch Complex (RLLC)
Object type
Payload
Rocket body
Debris
Shape & HBR
BOX + 2 PAN, 2.4 m
Radar Cross Section
RCS unknown

Expand to show TLE details & history
Last TLE update: 14 hours ago

TLE from 14 hours ago
0 STRIX-10
1 A0746U 26217A   26264.35181417  .00000318  00000-0  30915-4 0  9999
2 A0746  38.1586 305.7509 0033949 288.4822  71.2253 15.03378733   337
Epoch: 2026-09-21T08:26Z
TLE epoch observation values (Epoch: 2026-09-21T08:26:36.744Z)
Latitude
-0.00002°
Longitude
178.86489°
Altitude
548.233 km
Speed
7.594 km/s
True Right ascension
20h 23m 00s
True Declination
0° 00' 00"
Sunlit
Object was in full shadow at epoch
Visualization orbit readout
Latitude
Unknown
Longitude
Unknown
Altitude
Unknown
Speed
Unknown
Apparent Right ascension
Unknown
Apparent Declination
Unknown
Sunlit
N/A
Visualization observer readout
Local Sidereal Time
15:35:38
Azimuth
Unknown
Elevation
Unknown
Doppler factor
Unknown
Orbital elements
Apogee altitude
582.758 km
Perigee altitude
535.655 km
Semi-major axis
6,937.343 km
Eccentricity
0.00339
Inclination
38.1586°
RAAN
305.7509°
Arg. of periapsis
288.4822°
True anomaly
71.59413°
Mean anomaly
71.2253°
Eccentric anomaly
71.40966°
Mean motion
3.75624 °/min
Orbital period
95.84 mins
BSTAR
0.000030915
Loading maneuver chart data...
Computing Atmospheric mass density...
Loading historical data...
Loading historical data...
Loading historical data...
Loading historical data...
Loading historical data...
Loading historical data...
Loading historical data...
Other satellites on launch #217 in the year 2026 (2026-09-19 UTC)

Documentation

Showing up to 5 results
|